Home   Weather   Beja   Past weeks
Flag for Portugal

Past Weather in Beja, Portugal — Yesterday and Last 2 Weeks

Now
52 °F

Partly sunny.


Feels Like: 52 °F
Forecast: 60 / 43 °F
Wind: 2 mph from Northwest

Location: Beja Airport

Current Time: Dec 8, 2019 at 11:29:59 am

Latest Report: Dec 8, 2019 at 10:00 am


Visibility: 3 mi

Pressure: 30.36 "Hg

Humidity: 94%

Dew Point: 50 °F

Location of BejaLocation

Past Weather in Beja — Graph

°F

Beja Temperature Yesterday

Maximum temperature yesterday: 64 °F (at 3:00 pm)
Minimum temperature yesterday: 41 °F (at 7:00 am)
Average temperature yesterday: 51 °F

High & Low Weather Summary for the Past Weeks

 TemperatureHumidityPressure
High68 °F (Nov 25, 3:00 pm)100% (Nov 24, 12:00 am)30.36 "Hg (Nov 24, 12:00 am)
Low37 °F (Dec 4, 8:00 am)52% (Dec 3, 2:00 pm)29.80 "Hg (Dec 4, 2:00 pm)
Average54 °F84%30.03 "Hg
* Reported Nov 23 10:00 am — Dec 8 10:00 am, Beja. Weather by CustomWeather, © 2019

Note: Actual official high and low records may vary slightly from our data, if they occured in-between our weather recording intervals... More about our weather records

Beja Weather History for the Previous 24 Hours

Scroll right to see more
 ConditionsComfort  
Time TempWeatherWind HumidityBarometerVisibility
10:00 am
Sun, Dec 8
52 °FPartly sunny.2 mph94%30.36 "Hg3 mi
9:00 am48 °FPartly sunny.1 mph100%30.33 "Hg1 mi
8:21 am45 °FFog.3 mph100%30.33 "Hg0 mi
8:00 am43 °FLight fog.2 mph93%30.33 "Hg1 mi
7:00 am41 °FLight fog.2 mph100%30.33 "Hg4 mi
6:00 am43 °FLight fog.1 mph100%30.30 "Hg1 mi
5:00 am43 °FLight fog.2 mph100%30.30 "Hg1 mi
4:00 am45 °FLight fog.3 mph100%30.30 "Hg4 mi
3:00 am46 °FClear.2 mph93%30.30 "Hg10 mi
2:00 am46 °FClear.2 mph93%30.30 "Hg10 mi
1:00 am46 °FClear.6 mph93%30.30 "Hg10 mi
12:00 am48 °FClear.1 mph94%30.30 "Hg10 mi
11:00 pm
Sat, Dec 7
48 °FClear.2 mph94%30.30 "Hg10 mi
10:00 pm48 °FClear.2 mph87%30.30 "Hg10 mi
9:00 pm50 °FClear.2 mph82%30.30 "Hg10 mi
8:00 pm52 °FClear.5 mph82%30.27 "Hg10 mi
7:00 pm54 °FClear.1 mph72%30.27 "Hg10 mi
6:00 pm55 °FClear.6 mph72%30.27 "Hg10 mi
5:00 pm61 °FSunny.7 mph63%30.24 "Hg10 mi
4:00 pm63 °FPassing clouds.8 mph56%30.21 "HgN/A
3:00 pm64 °FSunny.7 mph52%30.21 "Hg10 mi
2:00 pm63 °FPassing clouds.6 mph59%30.21 "HgN/A
1:00 pm61 °FSunny.6 mph63%30.24 "Hg10 mi
12:00 pm59 °FSunny.2 mph68%30.27 "Hg10 mi
11:00 am54 °FSunny.5 mph77%30.27 "Hg10 mi
Weather by CustomWeather, © 2019

See weather overview

Advertising